Cosco Aden — VRKF9 — position and weather

sailwx.info

Track history (hours):
 
Tides and Currents Weather Stations Pressure Air Temp Water Temp Dewpoint Dewpoint Depression Visibility Wind Speed Wind Dir Waves Ship Positions

Cosco Aden

Last reported at 2014-Jul-26 23:24 UTC. Time now 2014-Aug-02 06:33 UTC.
Position N 22°18' E 114°06'.

Length 261 m; draft 12.1 m.

Type: Ship (hazmat cat A). MMSI: 477765900.

Date/timePositionNaut miles runAvg speedWind from/ knotsBaromVisibWave heightAir tempDewpointWater temp
2014-Jul-26 23:24N 22°18' E 114°06'1110.4
2014-Jul-26 22:20N 22°22' E 113°55'5 6.5
2014-Jul-26 21:33N 22°27' E 113°53'0 0.0
2014-Jul-26 20:29N 22°27' E 113°53'0 0.0
2014-Jul-26 19:17N 22°27' E 113°53'0 0.0
2014-Jul-26 18:29N 22°27' E 113°53'0 0.0
2014-Jul-26 17:29N 22°27' E 113°53'0 0.0
2014-Jul-26 16:29N 22°27' E 113°53'0 0.0
2014-Jul-26 15:29N 22°27' E 113°53'0 0.0
2014-Jul-26 14:29N 22°27' E 113°53'0 0.2
2014-Jul-26 13:33N 22°27' E 113°53'10 7.9
2014-Jul-26 12:16N 22°21' E 114°03'20 7.2
2014-Jul-26 09:26N 22°01' E 114°05'6 2.9
2014-Jul-26 07:28N 22°01' E 113°59'0 0.1
2014-Jul-26 06:22N 22°01' E 113°59'4 4.5
2014-Jul-26 05:33N 21°60' E 113°55'1111.3
2014-Jul-26 04:33N 22°10' E 113°50'1212.2
2014-Jul-26 03:33N 22°22' E 113°47'1413.9
2014-Jul-26 02:33N 22°35' E 113°43'2 0.3
2014-Jul-25 18:29N 22°37' E 113°42'1313.5
2014-Jul-25 17:33N 22°25' E 113°46'1111.5
2014-Jul-25 16:33N 22°14' E 113°49'1211.5
2014-Jul-25 15:33N 22°03' E 113°51'10 9.2
2014-Jul-25 14:26N 21°58' E 114°01'16313.7
2014-Jul-25 02:33N 22°50' E 116°48'1413.9
2014-Jul-25 01:32N 22°59' E 116°60'4314.4
2014-Jul-24 22:33N 23°20' E 117°40'1413.7
2014-Jul-24 21:32N 23°30' E 117°52'1414.0
2014-Jul-24 20:34N 23°38' E 118°03'1414.2
2014-Jul-24 19:33N 23°47' E 118°15'1414.3
2014-Jul-24 18:33N 23°57' E 118°27'1714.6
2014-Jul-24 17:25N 24°08' E 118°41'1414.7
2014-Jul-24 16:29N 24°16' E 118°52'1314.3
2014-Jul-24 15:33N 24°25' E 119°04'1414.1
2014-Jul-24 14:32N 24°34' E 119°16'3313.5
2014-Jul-24 12:06N 24°57' E 119°41'30011.5
2014-Jul-23 10:07N 29°18' E 122°28'711.8
2014-Jul-23 09:32N 29°25' E 122°28'1111.7
2014-Jul-23 08:33N 29°35' E 122°23'0 0.0
2014-Jul-23 06:24N 29°35' E 122°23'0 0.1
2014-Jul-23 05:30N 29°35' E 122°24'0 0.0
2014-Jul-23 04:30N 29°35' E 122°24'6 6.0
2014-Jul-23 03:33N 29°40' E 122°20'1312.9
2014-Jul-23 02:33N 29°51' E 122°12'8 7.4
2014-Jul-23 01:31N 29°53' E 122°03'0 0.0
2014-Jul-23 00:31N 29°53' E 122°03'0 0.0
2014-Jul-22 23:31N 29°53' E 122°03'0 0.0
2014-Jul-22 22:31N 29°53' E 122°03'0 0.0
2014-Jul-22 21:31N 29°53' E 122°03'0 0.0
2014-Jul-22 20:31N 29°53' E 122°03'0 0.0
2014-Jul-22 19:31N 29°53' E 122°03'0 0.0
2014-Jul-22 18:31N 29°53' E 122°03'0 0.1
2014-Jul-22 17:33N 29°53' E 122°03'0 0.0
2014-Jul-22 16:31N 29°53' E 122°03'0 0.0
2014-Jul-22 15:33N 29°53' E 122°03'2 1.7
2014-Jul-22 14:34N 29°55' E 122°05'9 9.0
2014-Jul-22 13:34N 29°50' E 122°13'1111.2
2014-Jul-22 12:33N 29°45' E 122°25'7 6.5
2014-Jul-22 11:31N 29°47' E 122°32'0 0.1
2014-Jul-22 10:31N 29°47' E 122°32'0 0.0
2014-Jul-22 09:25N 29°47' E 122°32'1 1.2
2014-Jul-22 08:33N 29°48' E 122°33'1514.3
2014-Jul-22 07:32N 29°57' E 122°46'1010.4
2014-Jul-22 06:33N 30°04' E 122°55'1111.4
2014-Jul-22 05:33N 30°14' E 123°00'1413.6
2014-Jul-22 04:33N 30°28' E 123°00'1413.6
2014-Jul-22 03:32N 30°42' E 123°01'1313.3
2014-Jul-22 02:32N 30°55' E 122°60'11414.0
2014-Jul-21 18:24N 32°49' E 122°56'4114.1
2014-Jul-21 15:31N 33°30' E 122°54'2813.7
2014-Jul-21 13:29N 33°57' E 122°47'16414.5
2014-Jul-21 02:13N 35°58' E 120°33'913.8
2014-Jul-21 01:33N 36°01' E 120°22'8 0.5
2014-Jul-20 10:12N 35°60' E 120°13'0 0.0
2014-Jul-20 08:30N 35°60' E 120°13'0 0.0
2014-Jul-20 07:24N 35°60' E 120°13'1 0.3
2014-Jul-20 02:30N 36°01' E 120°14'1111.4
2014-Jul-20 01:34N 36°00' E 120°27'1615.6
2014-Jul-20 00:33N 35°56' E 120°46'10 4.0
2014-Jul-19 22:08N 35°50' E 120°54'0 0.1
2014-Jul-19 21:26N 35°50' E 120°54'0 0.1
2014-Jul-19 20:32N 35°50' E 120°54'0 0.0
2014-Jul-19 19:32N 35°50' E 120°54'0 0.0
2014-Jul-19 18:32N 35°50' E 120°54'0 0.0
2014-Jul-19 17:33N 35°50' E 120°54'0 0.1
2014-Jul-19 16:08N 35°50' E 120°54'0 0.1
2014-Jul-19 15:26N 35°50' E 120°54'1 1.0
2014-Jul-19 14:33N 35°49' E 120°53'1413.4
2014-Jul-19 13:32N 35°57' E 120°39'1 1.3
2014-Jul-19 12:33N 35°58' E 120°41'1414.4
2014-Jul-19 11:33N 35°51' E 120°57'1 0.9
2014-Jul-19 10:23N 35°51' E 120°58'0 0.0
2014-Jul-19 09:29N 35°51' E 120°58'0 0.1
2014-Jul-19 08:29N 35°51' E 120°58'0 0.0
2014-Jul-19 07:29N 35°51' E 120°58'0 0.0
2014-Jul-19 06:29N 35°51' E 120°58'0 0.1
2014-Jul-19 05:29N 35°51' E 120°58'0 0.2
2014-Jul-19 04:29N 35°51' E 120°58'0 0.1
2014-Jul-19 03:11N 35°51' E 120°58'0 0.1
2014-Jul-19 02:11N 35°51' E 120°58'0 0.0
2014-Jul-19 01:23N 35°51' E 120°58'0 0.1
2014-Jul-19 00:23N 35°51' E 120°58'1011.5
2014-Jul-18 23:33N 36°00' E 120°60'8 7.8
2014-Jul-18 22:34N 36°05' E 121°08'8 8.2
2014-Jul-18 21:33N 36°09' E 121°17'8 8.1
2014-Jul-18 20:31N 36°12' E 121°26'8 8.6
2014-Jul-18 19:33N 36°15' E 121°36'18 8.9
2014-Jul-18 17:33N 36°24' E 121°55'17 8.6
2014-Jul-18 15:33N 36°34' E 122°12'9 8.3
2014-Jul-18 14:29N 36°39' E 122°21'9 9.9
2014-Jul-18 13:33N 36°45' E 122°31'1212.5
2014-Jul-18 12:33N 36°53' E 122°42'1212.2
2014-Jul-18 11:33N 37°05' E 122°46'1413.8
2014-Jul-18 10:33N 37°19' E 122°46'1413.9
2014-Jul-18 09:31N 37°33' E 122°42'1414.4
2014-Jul-18 08:33N 37°41' E 122°28'1413.9
2014-Jul-18 07:33N 37°50' E 122°14'1413.6
2014-Jul-18 06:33N 37°57' E 121°60'1313.2
2014-Jul-18 05:33N 38°06' E 121°47'1313.4
2014-Jul-18 04:33N 38°14' E 121°33'1414.1
2014-Jul-18 03:33N 38°22' E 121°18'1615.6
2014-Jul-18 02:30N 38°30' E 120°60'12314.9
2014-Jul-17 18:17N 38°49' E 118°24'2313.2
2014-Jul-17 16:33N 38°57' E 117°57'9 8.4
2014-Jul-17 15:32N 38°59' E 117°46'0 0.0
2014-Jul-17 14:29N 38°59' E 117°46'0 0.0
2014-Jul-17 13:32N 38°59' E 117°46'0 0.0
2014-Jul-17 12:32N 38°59' E 117°46'0 0.0
2014-Jul-17 11:29N 38°59' E 117°46'0 0.0
2014-Jul-17 10:32N 38°59' E 117°46'0 0.0
2014-Jul-17 09:32N 38°59' E 117°46'0 0.0
2014-Jul-17 08:32N 38°59' E 117°46'0 0.0
2014-Jul-17 07:32N 38°59' E 117°46'0 0.0
2014-Jul-17 06:32N 38°59' E 117°46'0 0.0
2014-Jul-17 05:29N 38°59' E 117°46'0 0.0
2014-Jul-17 04:32N 38°59' E 117°46'0 0.0
2014-Jul-17 03:32N 38°59' E 117°46'0 0.0
2014-Jul-17 02:32N 38°59' E 117°46'0 0.0
2014-Jul-17 01:32N 38°59' E 117°46'0 0.0
2014-Jul-17 00:32N 38°59' E 117°46'0 0.0
2014-Jul-16 23:32N 38°59' E 117°46'  
Track history (hours):
 
Tides and Currents Weather Stations Pressure Air Temp Water Temp Dewpoint Dewpoint Depression Visibility Wind Speed Wind Dir Waves Ship Positions

Cosco Aden

Last reported at 2014-Jul-26 23:24 UTC. Time now 2014-Aug-02 06:33 UTC.
Position N 22°18' E 114°06'.

Length 261 m; draft 12.1 m.

Type: Ship (hazmat cat A). MMSI: 477765900.

Date/timePositionNaut miles runAvg speedWind from/ knotsBaromVisibWave heightAir tempDewpointWater temp
2014-Jul-26 23:24N 22°18' E 114°06'1110.4
2014-Jul-26 22:20N 22°22' E 113°55'5 6.5
2014-Jul-26 21:33N 22°27' E 113°53'0 0.0
2014-Jul-26 20:29N 22°27' E 113°53'0 0.0
2014-Jul-26 19:17N 22°27' E 113°53'0 0.0
2014-Jul-26 18:29N 22°27' E 113°53'0 0.0
2014-Jul-26 17:29N 22°27' E 113°53'0 0.0
2014-Jul-26 16:29N 22°27' E 113°53'0 0.0
2014-Jul-26 15:29N 22°27' E 113°53'0 0.0
2014-Jul-26 14:29N 22°27' E 113°53'0 0.2
2014-Jul-26 13:33N 22°27' E 113°53'10 7.9
2014-Jul-26 12:16N 22°21' E 114°03'20 7.2
2014-Jul-26 09:26N 22°01' E 114°05'6 2.9
2014-Jul-26 07:28N 22°01' E 113°59'0 0.1
2014-Jul-26 06:22N 22°01' E 113°59'4 4.5
2014-Jul-26 05:33N 21°60' E 113°55'1111.3
2014-Jul-26 04:33N 22°10' E 113°50'1212.2
2014-Jul-26 03:33N 22°22' E 113°47'1413.9
2014-Jul-26 02:33N 22°35' E 113°43'2 0.3
2014-Jul-25 18:29N 22°37' E 113°42'1313.5
2014-Jul-25 17:33N 22°25' E 113°46'1111.5
2014-Jul-25 16:33N 22°14' E 113°49'1211.5
2014-Jul-25 15:33N 22°03' E 113°51'10 9.2
2014-Jul-25 14:26N 21°58' E 114°01'16313.7
2014-Jul-25 02:33N 22°50' E 116°48'1413.9
2014-Jul-25 01:32N 22°59' E 116°60'4314.4
2014-Jul-24 22:33N 23°20' E 117°40'1413.7
2014-Jul-24 21:32N 23°30' E 117°52'1414.0
2014-Jul-24 20:34N 23°38' E 118°03'1414.2
2014-Jul-24 19:33N 23°47' E 118°15'1414.3
2014-Jul-24 18:33N 23°57' E 118°27'1714.6
2014-Jul-24 17:25N 24°08' E 118°41'1414.7
2014-Jul-24 16:29N 24°16' E 118°52'1314.3
2014-Jul-24 15:33N 24°25' E 119°04'1414.1
2014-Jul-24 14:32N 24°34' E 119°16'3313.5
2014-Jul-24 12:06N 24°57' E 119°41'30011.5
2014-Jul-23 10:07N 29°18' E 122°28'711.8
2014-Jul-23 09:32N 29°25' E 122°28'1111.7
2014-Jul-23 08:33N 29°35' E 122°23'0 0.0
2014-Jul-23 06:24N 29°35' E 122°23'0 0.1
2014-Jul-23 05:30N 29°35' E 122°24'0 0.0
2014-Jul-23 04:30N 29°35' E 122°24'6 6.0
2014-Jul-23 03:33N 29°40' E 122°20'1312.9
2014-Jul-23 02:33N 29°51' E 122°12'8 7.4
2014-Jul-23 01:31N 29°53' E 122°03'0 0.0
2014-Jul-23 00:31N 29°53' E 122°03'0 0.0
2014-Jul-22 23:31N 29°53' E 122°03'0 0.0
2014-Jul-22 22:31N 29°53' E 122°03'0 0.0
2014-Jul-22 21:31N 29°53' E 122°03'0 0.0
2014-Jul-22 20:31N 29°53' E 122°03'0 0.0
2014-Jul-22 19:31N 29°53' E 122°03'0 0.0
2014-Jul-22 18:31N 29°53' E 122°03'0 0.1
2014-Jul-22 17:33N 29°53' E 122°03'0 0.0
2014-Jul-22 16:31N 29°53' E 122°03'0 0.0
2014-Jul-22 15:33N 29°53' E 122°03'2 1.7
2014-Jul-22 14:34N 29°55' E 122°05'9 9.0
2014-Jul-22 13:34N 29°50' E 122°13'1111.2
2014-Jul-22 12:33N 29°45' E 122°25'7 6.5
2014-Jul-22 11:31N 29°47' E 122°32'0 0.1
2014-Jul-22 10:31N 29°47' E 122°32'0 0.0
2014-Jul-22 09:25N 29°47' E 122°32'1 1.2
2014-Jul-22 08:33N 29°48' E 122°33'1514.3
2014-Jul-22 07:32N 29°57' E 122°46'1010.4
2014-Jul-22 06:33N 30°04' E 122°55'1111.4
2014-Jul-22 05:33N 30°14' E 123°00'1413.6
2014-Jul-22 04:33N 30°28' E 123°00'1413.6
2014-Jul-22 03:32N 30°42' E 123°01'1313.3
2014-Jul-22 02:32N 30°55' E 122°60'11414.0
2014-Jul-21 18:24N 32°49' E 122°56'4114.1
2014-Jul-21 15:31N 33°30' E 122°54'2813.7
2014-Jul-21 13:29N 33°57' E 122°47'16414.5
2014-Jul-21 02:13N 35°58' E 120°33'913.8
2014-Jul-21 01:33N 36°01' E 120°22'8 0.5
2014-Jul-20 10:12N 35°60' E 120°13'0 0.0
2014-Jul-20 08:30N 35°60' E 120°13'0 0.0
2014-Jul-20 07:24N 35°60' E 120°13'1 0.3
2014-Jul-20 02:30N 36°01' E 120°14'1111.4
2014-Jul-20 01:34N 36°00' E 120°27'1615.6
2014-Jul-20 00:33N 35°56' E 120°46'10 4.0
2014-Jul-19 22:08N 35°50' E 120°54'0 0.1
2014-Jul-19 21:26N 35°50' E 120°54'0 0.1
2014-Jul-19 20:32N 35°50' E 120°54'0 0.0
2014-Jul-19 19:32N 35°50' E 120°54'0 0.0
2014-Jul-19 18:32N 35°50' E 120°54'0 0.0
2014-Jul-19 17:33N 35°50' E 120°54'0 0.1
2014-Jul-19 16:08N 35°50' E 120°54'0 0.1
2014-Jul-19 15:26N 35°50' E 120°54'1 1.0
2014-Jul-19 14:33N 35°49' E 120°53'1413.4
2014-Jul-19 13:32N 35°57' E 120°39'1 1.3
2014-Jul-19 12:33N 35°58' E 120°41'1414.4
2014-Jul-19 11:33N 35°51' E 120°57'1 0.9
2014-Jul-19 10:23N 35°51' E 120°58'0 0.0
2014-Jul-19 09:29N 35°51' E 120°58'0 0.1
2014-Jul-19 08:29N 35°51' E 120°58'0 0.0
2014-Jul-19 07:29N 35°51' E 120°58'0 0.0
2014-Jul-19 06:29N 35°51' E 120°58'0 0.1
2014-Jul-19 05:29N 35°51' E 120°58'0 0.2
2014-Jul-19 04:29N 35°51' E 120°58'0 0.1
2014-Jul-19 03:11N 35°51' E 120°58'0 0.1
2014-Jul-19 02:11N 35°51' E 120°58'0 0.0
2014-Jul-19 01:23N 35°51' E 120°58'0 0.1
2014-Jul-19 00:23N 35°51' E 120°58'1011.5
2014-Jul-18 23:33N 36°00' E 120°60'8 7.8
2014-Jul-18 22:34N 36°05' E 121°08'8 8.2
2014-Jul-18 21:33N 36°09' E 121°17'8 8.1
2014-Jul-18 20:31N 36°12' E 121°26'8 8.6
2014-Jul-18 19:33N 36°15' E 121°36'18 8.9
2014-Jul-18 17:33N 36°24' E 121°55'17 8.6
2014-Jul-18 15:33N 36°34' E 122°12'9 8.3
2014-Jul-18 14:29N 36°39' E 122°21'9 9.9
2014-Jul-18 13:33N 36°45' E 122°31'1212.5
2014-Jul-18 12:33N 36°53' E 122°42'1212.2
2014-Jul-18 11:33N 37°05' E 122°46'1413.8
2014-Jul-18 10:33N 37°19' E 122°46'1413.9
2014-Jul-18 09:31N 37°33' E 122°42'1414.4
2014-Jul-18 08:33N 37°41' E 122°28'1413.9
2014-Jul-18 07:33N 37°50' E 122°14'1413.6
2014-Jul-18 06:33N 37°57' E 121°60'1313.2
2014-Jul-18 05:33N 38°06' E 121°47'1313.4
2014-Jul-18 04:33N 38°14' E 121°33'1414.1
2014-Jul-18 03:33N 38°22' E 121°18'1615.6
2014-Jul-18 02:30N 38°30' E 120°60'12314.9
2014-Jul-17 18:17N 38°49' E 118°24'2313.2
2014-Jul-17 16:33N 38°57' E 117°57'9 8.4
2014-Jul-17 15:32N 38°59' E 117°46'0 0.0
2014-Jul-17 14:29N 38°59' E 117°46'0 0.0
2014-Jul-17 13:32N 38°59' E 117°46'0 0.0
2014-Jul-17 12:32N 38°59' E 117°46'0 0.0
2014-Jul-17 11:29N 38°59' E 117°46'0 0.0
2014-Jul-17 10:32N 38°59' E 117°46'0 0.0
2014-Jul-17 09:32N 38°59' E 117°46'0 0.0
2014-Jul-17 08:32N 38°59' E 117°46'0 0.0
2014-Jul-17 07:32N 38°59' E 117°46'0 0.0
2014-Jul-17 06:32N 38°59' E 117°46'0 0.0
2014-Jul-17 05:29N 38°59' E 117°46'0 0.0
2014-Jul-17 04:32N 38°59' E 117°46'0 0.0
2014-Jul-17 03:32N 38°59' E 117°46'0 0.0
2014-Jul-17 02:32N 38°59' E 117°46'0 0.0
2014-Jul-17 01:32N 38°59' E 117°46'0 0.0
2014-Jul-17 00:32N 38°59' E 117°46'0 0.0
2014-Jul-16 23:32N 38°59' E 117°46'  

Dump ship's entire track history